sat.trackr.live / text

‹ back to catalog

CUBESAT XI-IV (CO-57)

NORAD 27848 · 2003-031J

PAYLOAD ACTIVE UNKNOWN

§ Identity

Operator
Country
JPN
Launch date
2003-06-30
Launch site
PLMSC
Launch vehicle
Mass (kg)
RCS (m²)
0.03

Purposes: comms, tech_demo

External: N2YO · Heavens-Above · Gunter

§ Orbital elements

Epoch: 2026-09-09T13:48:06.842016Z

Period
101.15 min
Inclination
98.6802°
Eccentricity
0.0008764
Mean motion
14.23657897 rev/d
Perigee alt
806.7 km
Apogee alt
819.3 km
Semi-major
7,191.1 km
B*
8.6780e-5
RAAN
259.7307°
Arg perigee
325.8005°
Mean anomaly
34.2609°
Rev number
20,338

§ Raw data

CUBESAT XI-IV (CO-57)1 27848U 03031J   26252.57507919  .00000154  00000+0  86780-4 0  99982 27848  98.6802 259.7307 0008764 325.8005  34.2609 14.23657897203387

JSON: /api/v1/satellites/27848 · /tle

For live sub-satellite position, see the globe view (requires WebGL).

§ Visibility from observer

Set your observer location to see the next 7 days of passes ≥ 10°. The values pass through the URL so the page stays shareable.

No JS? Fill the form by hand. The geolocation button needs JavaScript.

§ Radio — SatNOGS DB

ModeDescriptionDownlinkUplink
AFSK Mode U AFSK TLM 437.490 MHz
CW Mode U CW Beacon 436.848 MHz
CW PE0SAT - CW Beacon 436.849 MHz

3 transmitters · refreshed weekly from db.satnogs.org